This is the latest recevied weather packets stored in our database for station/object KC4KQE. If no packets are shown the sender has not sent any weather packets the latest 10 day(s).
| Time | Temp. | Humidity | Pressure | Rain* | Wind** | Luminosity | Snow |
|---|---|---|---|---|---|---|---|
| 1777774157 | 30° C | 13% | 1010.7 hPa | 0 mm | - | 7 W/m² | - |
| 1777773857 | 30.56° C | 13% | 1010.7 hPa | 0 mm | - | 12 W/m² | - |
| 1777773558 | 30.56° C | 12% | 1010.6 hPa | 0 mm | - | 23 W/m² | - |
| 1777773257 | 30.56° C | 12% | 1010.6 hPa | 0 mm | - | 32 W/m² | - |
| 1777772957 | 30.56° C | 12% | 1010.6 hPa | 0 mm | - | 39 W/m² | - |
| 1777772657 | 31.11° C | 12% | 1010.6 hPa | 0 mm | - | 44 W/m² | - |
| 1777772357 | 31.11° C | 12% | 1010.7 hPa | 0 mm | - | 53 W/m² | - |
| 1777772057 | 31.11° C | 12% | 1010.7 hPa | 0 mm | - | 63 W/m² | - |
| 1777771757 | 31.11° C | 12% | 1010.7 hPa | 0 mm | - | 69 W/m² | - |
| 1777771457 | 31.11° C | 12% | 1010.6 hPa | 0 mm | - | 81 W/m² | - |
| 1777771157 | 31.11° C | 12% | 1010.7 hPa | 0 mm | - | 114 W/m² | - |
| 1777770857 | 31.11° C | 12% | 1010.7 hPa | 0 mm | - | 105 W/m² | - |
| 1777770557 | 31.11° C | 12% | 1010.7 hPa | 0 mm | - | 149 W/m² | - |
| 1777770258 | 31.67° C | 12% | 1010.7 hPa | 0 mm | - | 144 W/m² | - |
| 1777769957 | 31.67° C | 12% | 1010.7 hPa | 0 mm | - | 171 W/m² | - |
| 1777769657 | 31.67° C | 12% | 1010.7 hPa | 0 mm | - | 227 W/m² | - |
| 1777769357 | 31.11° C | 12% | 1010.7 hPa | 0 mm | - | 236 W/m² | - |
| 1777769057 | 31.67° C | 12% | 1010.9 hPa | 0 mm | - | 188 W/m² | - |
| 1777768757 | 31.67° C | 12% | 1010.8 hPa | 0 mm | - | 176 W/m² | - |
| 1777768457 | 31.67° C | 12% | 1010.8 hPa | 0 mm | - | 315 W/m² | - |
| 1777768159 | 32.22° C | 12% | 1010.7 hPa | 0 mm | - | 288 W/m² | - |
| 1777767857 | 31.67° C | 12% | 1010.8 hPa | 0 mm | - | 279 W/m² | - |
| 1777767557 | 32.22° C | 12% | 1010.9 hPa | 0 mm | - | 346 W/m² | - |
| 1777767257 | 32.22° C | 12% | 1010.8 hPa | 0 mm | - | 330 W/m² | - |
| 1777766958 | 32.22° C | 12% | 1010.8 hPa | 0 mm | - | 288 W/m² | - |
* Rain latest hour (hover to see other rain measurements)
** Current wind speed in m/s (hover to see current wind gust speed)